Retour au catalogue

GLOBALSTAR M059

ActifCommunicationsLEO
NORAD 25944·PAYLOAD·🇺🇸 United States

Lancé Oct 18, 1999 depuis Baikonur Cosmodrome

Loading…

Prochains Passages (prochaines 24 heures)

TLE

FraisSource: Space-Track

Époque: Sep 14, 2026, 11:09 UTC

1 25944U 99058B   26257.46460500 -.00000070  00000-0  20229-3 0  9998
2 25944  52.0019  58.1737 0001084  99.0331 293.7641 12.00002154628588

Suivez GLOBALSTAR M059 en temps réel avec AllMySat

Download on the App Store